EW0435 Weather Reports


Display with metric or nautical units.
time (UTC)temp
F
wind
direction
speed
MPH
gust
MPH
rain 1hr
in
rain 24hr
in
rain mn
in
humidity
%
barometer
mb
20260505213504 70 339 1.0 5.0 0.00 0.00 0.00 37 1017.3
20260505213004 70 334 0.0 3.0 0.00 0.00 0.00 38 1017.3
20260505212504 69 309 1.0 8.0 0.00 0.00 0.00 39 1017.3
20260505212004 68 333 1.0 5.0 0.00 0.00 0.00 36 1017.4
20260505211504 69 348 0.0 3.0 0.00 0.00 0.00 37 1017.4
20260505211005 69 351 0.0 1.0 0.00 0.00 0.00 39 1017.5
20260505210505 68 332 0.0 1.0 0.00 0.00 0.00 37 1017.5
20260505205004 69 26 2.0 5.0 0.00 0.00 0.00 36 1017.5
20260505204504 69 26 2.0 9.0 0.00 0.00 0.00 36 1017.5
20260505204004 69 30 1.0 3.0 0.00 0.00 0.00 36 1017.6
20260505203004 67 355 1.0 5.0 0.00 0.00 0.00 39 1017.6
20260505202504 67 39 0.0 1.0 0.00 0.00 0.00 38 1017.6
20260505202004 68 8 1.0 7.0 0.00 0.00 0.00 36 1017.6
20260505200504 71 334 0.0 1.0 0.00 0.00 0.00 34 1017.6
20260505200003 70 1 0.0 1.0 0.00 0.00 0.00 35 1017.6
20260505195505 71 30 0.0 1.0 0.00 0.00 0.00 34 1017.6
20260505195004 70 15 1.0 3.0 0.00 0.00 0.00 36 1017.6
20260505194504 69 0 1.0 6.0 0.00 0.00 0.00 35 1017.6
20260505194004 69 342 0.0 3.0 0.00 0.00 0.00 36 1017.6
20260505193505 70 42 0.0 0.0 0.00 0.00 0.00 35 1017.6
20260505193004 69 352 0.0 0.0 0.00 0.00 0.00 35 1017.7
20260505192003 67 45 0.0 0.0 0.00 0.00 0.00 38 1017.7
20260505191504 67 44 0.0 0.0 0.00 0.00 0.00 38 1017.7
20260505191005 68 50 0.0 0.0 0.00 0.00 0.00 36 1017.7
20260505190504 67 49 0.0 0.0 0.00 0.00 0.00 40 1017.7
20260505190004 66 61 0.0 1.0 0.00 0.00 0.00 41 1017.7
20260505185503 66 34 0.0 1.0 0.00 0.00 0.00 42 1017.7
20260505185004 66 44 0.0 0.0 0.00 0.00 0.00 39 1017.7
20260505184004 68 58 0.0 0.0 0.00 0.00 0.00 40 1017.6
20260505183504 68 17 0.0 0.0 0.00 0.00 0.00 36 1017.6
20260505183004 67 2 0.0 1.0 0.00 0.00 0.00 38 1017.6
20260505182504 65 40 0.0 1.0 0.00 0.00 0.00 42 1017.6
20260505182004 65 58 0.0 1.0 0.00 0.00 0.00 44 1017.6
20260505181504 64 79 0.0 1.0 0.00 0.00 0.00 46 1017.7
20260505181004 63 77 0.0 0.0 0.00 0.00 0.00 45 1017.6
20260505180004 62 68 0.0 1.0 0.00 0.00 0.00 45 1017.7
20260505175504 62 71 0.0 1.0 0.00 0.00 0.00 48 1017.7
20260505175004 62 56 0.0 2.0 0.00 0.00 0.00 48 1017.6
20260505174004 62 79 0.0 0.0 0.00 0.00 0.00 48 1017.6
20260505173003 61 66 0.0 1.0 0.00 0.00 0.00 52 1017.6
20260505172504 60 77 0.0 0.0 0.00 0.00 0.00 54 1017.6
20260505172004 60 111 0.0 1.0 0.00 0.00 0.00 51 1017.6
20260505171504 60 77 0.0 0.0 0.00 0.00 0.00 53 1017.6
20260505171004 59 91 0.0 1.0 0.00 0.00 0.00 51 1017.6
20260505170504 60 92 0.0 1.0 0.00 0.00 0.00 52 1017.5
20260505170004 59 92 0.0 0.0 0.00 0.00 0.00 52 1017.6
20260505165504 59 87 0.0 0.0 0.00 0.00 0.00 53 1017.6
20260505165004 59 84 0.0 0.0 0.00 0.00 0.00 48 1017.5
20260505164503 60 78 0.0 0.0 0.00 0.00 0.00 49 1017.5
20260505164004 59 78 0.0 0.0 0.00 0.00 0.00 50 1017.5
20260505163504 59 75 0.0 0.0 0.00 0.00 0.00 52 1017.5
20260505163004 58 76 0.0 0.0 0.00 0.00 0.00 53 1017.4
20260505162504 59 103 0.0 0.0 0.00 0.00 0.00 51 1017.4
20260505162004 58 84 0.0 0.0 0.00 0.00 0.00 51 1017.4
20260505161504 58 82 0.0 0.0 0.00 0.00 0.00 54 1017.4
20260505161004 57 86 0.0 0.0 0.00 0.00 0.00 54 1017.3
20260505160503 57 96 0.0 0.0 0.00 0.00 0.00 52 1017.4
20260505153004 56 84 0.0 0.0 0.00 0.00 0.00 54 1017.4
20260505152504 55 79 0.0 0.0 0.00 0.00 0.00 58 1017.4
20260505152005 55 79 0.0 0.0 0.00 0.00 0.00 58 1017.4
20260505151504 54 77 0.0 0.0 0.00 0.00 0.00 57 1017.4
20260505151004 54 82 0.0 0.0 0.00 0.00 0.00 59 1017.3
20260505150503 53 86 0.0 0.0 0.00 0.00 0.00 57 1017.2
20260505140504 51 105 0.0 0.0 0.00 0.00 0.00 58 1016.8
20260505125004 48 104 0.0 0.0 0.00 0.00 0.00 64 1016.4
20260505124504 48 104 0.0 0.0 0.00 0.00 0.00 64 1016.3
20260505124004 48 104 0.0 0.0 0.00 0.00 0.00 64 1016.3
20260505123004 48 104 0.0 0.0 0.00 0.00 0.00 64 1016.3
20260505122504 48 104 0.0 0.0 0.00 0.00 0.00 64 1016.2
20260505122004 48 104 0.0 0.0 0.00 0.00 0.00 65 1016.2
20260505121004 48 104 0.0 0.0 0.00 0.00 0.00 65 1016.2
20260505120005 48 104 0.0 0.0 0.00 0.00 0.00 64 1016.2
20260505115004 48 104 0.0 0.0 0.00 0.00 0.00 65 1016.2
20260505114504 48 104 0.0 0.0 0.00 0.00 0.00 66 1016.1
20260505114004 48 103 0.0 0.0 0.00 0.00 0.00 66 1016.1
20260505113504 48 103 0.0 0.0 0.00 0.00 0.00 65 1016.2
20260505113004 48 103 0.0 0.0 0.00 0.00 0.00 64 1016.1
20260505112504 49 103 0.0 0.0 0.00 0.00 0.00 64 1016.1
20260505112004 49 103 0.0 0.0 0.00 0.00 0.00 63 1016.0
20260505111504 49 103 0.0 0.0 0.00 0.00 0.00 63 1016.0
20260505111004 49 103 0.0 0.0 0.00 0.00 0.00 63 1015.9
20260505102004 51 103 0.0 0.0 0.00 0.00 0.00 60 1015.7
20260505101504 52 103 0.0 0.0 0.00 0.00 0.00 59 1015.6
20260505101004 52 103 0.0 0.0 0.00 0.00 0.00 59 1015.6
20260505100504 52 103 0.0 0.0 0.00 0.00 0.00 59 1015.6
20260505100004 52 103 0.0 0.0 0.00 0.00 0.00 59 1015.6
20260505095503 52 103 0.0 0.0 0.00 0.00 0.00 59 1015.6
20260505095005 52 103 0.0 0.0 0.00 0.00 0.00 58 1015.6
20260505094004 52 103 0.0 0.0 0.00 0.00 0.00 58 1015.5
20260505093504 52 103 0.0 0.0 0.00 0.00 0.00 57 1015.5
20260505093004 52 103 0.0 0.0 0.00 0.00 0.00 57 1015.5
20260505092504 52 103 0.0 0.0 0.00 0.00 0.00 57 1015.5
20260505092004 52 103 0.0 0.0 0.00 0.00 0.00 58 1015.5
20260505091504 52 103 0.0 0.0 0.00 0.00 0.00 57 1015.5
20260505091004 53 103 0.0 0.0 0.00 0.00 0.00 57 1015.5
20260505090505 53 103 0.0 0.0 0.00 0.00 0.00 56 1015.5
20260505090004 53 86 0.0 0.0 0.00 0.00 0.00 57 1015.5
20260505085504 53 86 0.0 0.0 0.00 0.00 0.00 58 1015.5
20260505085004 53 86 0.0 0.0 0.00 0.00 0.00 58 1015.5
20260505084504 53 86 0.0 0.0 0.00 0.00 0.00 58 1015.5
20260505084004 52 102 0.0 0.0 0.00 0.00 0.00 60 1015.5
20260505083504 52 66 0.0 0.0 0.00 0.00 0.00 61 1015.6
20260505083005 52 66 0.0 0.0 0.00 0.00 0.00 61 1015.5
20260505082504 52 67 0.0 0.0 0.00 0.00 0.00 62 1015.5
20260505082005 51 75 0.0 0.0 0.00 0.00 0.00 64 1015.5
20260505081504 50 76 0.0 0.0 0.00 0.00 0.00 66 1015.4
20260505080003 51 67 0.0 0.0 0.00 0.00 0.00 65 1015.4
20260505075504 52 82 0.0 1.0 0.00 0.00 0.00 65 1015.5
20260505074504 52 74 0.0 1.0 0.00 0.00 0.00 64 1015.5
20260505074004 52 77 0.0 0.0 0.00 0.00 0.00 63 1015.5
20260505073504 53 82 0.0 1.0 0.00 0.00 0.00 63 1015.5
20260505072003 54 86 0.0 0.0 0.00 0.00 0.00 62 1015.5
20260505071504 55 88 0.0 0.0 0.00 0.00 0.00 61 1015.5
20260505071004 55 90 0.0 0.0 0.00 0.00 0.00 61 1015.4
20260505070504 55 90 0.0 0.0 0.00 0.00 0.00 61 1015.4
20260505070004 55 91 0.0 0.0 0.00 0.00 0.00 61 1015.4
20260505065503 55 97 0.0 0.0 0.00 0.00 0.00 62 1015.4
20260505065004 55 97 0.0 0.0 0.00 0.00 0.00 62 1015.3
20260505064504 55 98 0.0 0.0 0.00 0.00 0.00 63 1015.3
20260505064004 54 98 0.0 0.0 0.00 0.00 0.00 65 1015.2
20260505063504 54 98 0.0 0.0 0.00 0.00 0.00 67 1015.2
20260505063004 54 98 0.0 0.0 0.00 0.00 0.00 67 1015.2
20260505062504 54 98 0.0 0.0 0.00 0.00 0.00 67 1015.1
20260505062004 55 98 0.0 0.0 0.00 0.00 0.00 67 1015.1
20260505061004 55 98 0.0 0.0 0.00 0.00 0.00 67 1015.1
20260505060504 54 99 0.0 0.0 0.00 0.00 0.00 68 1015.1
20260505060005 54 99 0.0 0.0 0.00 0.00 0.00 68 1015.1
20260505055504 54 99 0.0 0.0 0.00 0.00 0.00 68 1015.1
20260505055004 54 99 0.0 0.0 0.00 0.00 0.00 69 1015.0
20260505054504 54 99 0.0 0.0 0.00 0.00 0.00 69 1015.0
20260505054004 54 99 0.0 0.0 0.00 0.00 0.00 68 1015.0
20260505053504 55 99 0.0 0.0 0.00 0.00 0.00 67 1015.0
20260505053004 55 99 0.0 0.0 0.00 0.00 0.00 67 1014.9
20260505052503 55 99 0.0 0.0 0.00 0.00 0.00 67 1014.9
20260505051004 55 99 0.0 0.0 0.00 0.00 0.00 68 1014.9
20260505050504 55 99 0.0 0.0 0.00 0.00 0.00 67 1015.0
20260505041503 56 82 0.0 0.0 0.00 0.00 0.00 65 1014.5
20260505040504 58 74 1.0 3.0 0.00 0.00 0.00 59 1014.3
20260505040005 59 58 1.0 5.0 0.00 0.00 0.00 55 1014.2
20260505035504 58 5 0.0 2.0 0.00 0.00 0.00 55 1014.1
20260505035004 58 342 0.0 6.0 0.00 0.00 0.00 60 1013.9
20260505034004 59 319 0.0 0.0 0.00 0.00 0.00 59 1013.8
20260505033504 59 316 0.0 0.0 0.00 0.00 0.00 58 1013.7
20260505033004 59 307 0.0 3.0 0.00 0.00 0.00 58 1013.6
20260505032504 60 313 0.0 1.0 0.00 0.00 0.00 57 1013.5
20260505031504 60 312 0.0 3.0 0.00 0.00 0.00 57 1013.5
20260505031005 61 315 0.0 2.0 0.00 0.00 0.00 56 1013.6
20260505030003 61 314 0.0 2.0 0.00 0.00 0.00 55 1013.5
20260505025504 62 309 0.0 3.0 0.00 0.00 0.00 55 1013.5
20260505025004 62 316 0.0 2.0 0.00 0.00 0.00 54 1013.5
20260505024504 63 312 0.0 2.0 0.00 0.00 0.00 53 1013.5
20260505024004 63 317 0.0 1.0 0.00 0.00 0.00 53 1013.5
20260505023504 64 329 0.0 0.0 0.00 0.00 0.00 53 1013.4
20260505022503 65 329 0.0 1.0 0.00 0.00 0.00 51 1013.4
20260505022004 66 332 0.0 0.0 0.00 0.00 0.00 50 1013.4
20260505021505 66 336 0.0 2.0 0.00 0.00 0.00 49 1013.4
20260505021004 66 318 0.0 2.0 0.00 0.00 0.00 49 1013.3
20260505020504 67 310 1.0 3.0 0.00 0.00 0.00 47 1013.3
20260505020005 67 314 0.0 2.0 0.00 0.00 0.00 47 1013.3
20260505015504 68 324 0.0 2.0 0.00 0.00 0.00 46 1013.3
20260505015004 68 317 0.0 3.0 0.00 0.00 0.00 46 1013.3
20260505014504 68 324 1.0 5.0 0.00 0.00 0.00 45 1013.3
20260505013504 69 313 1.0 3.0 0.00 0.00 0.00 44 1013.3
20260505013004 69 318 1.0 3.0 0.00 0.00 0.00 45 1013.3
20260505012004 69 315 1.0 7.0 0.00 0.00 0.00 43 1013.4
20260505011504 69 318 1.0 7.0 0.00 0.00 0.00 43 1013.4
20260505011003 69 327 0.0 5.0 0.00 0.00 0.00 44 1013.4
20260505010504 69 329 1.0 5.0 0.00 0.00 0.00 42 1013.5
20260505010004 70 303 1.0 12.0 0.00 0.00 0.00 41 1013.5
20260505005004 71 330 1.0 6.0 0.00 0.00 0.00 41 1013.6
20260505004004 71 335 0.0 3.0 0.00 0.00 0.00 43 1013.6
20260505003504 71 328 1.0 6.0 0.00 0.00 0.00 42 1013.6
20260505003004 71 311 2.0 12.0 0.00 0.00 0.00 41 1013.6
20260505002004 71 317 1.0 13.0 0.00 0.00 0.00 41 1013.6
20260505001504 71 318 1.0 3.0 0.00 0.00 0.00 43 1013.6
20260505001004 71 314 3.0 12.0 0.00 0.00 0.00 40 1013.6
20260504235504 72 321 2.0 7.0 0.00 0.00 0.00 41 1013.6
20260504235004 71 314 3.0 10.0 0.00 0.00 0.00 39 1013.6
20260504234503 72 310 2.0 9.0 0.00 0.00 0.00 40 1013.6
20260504234004 72 319 1.0 10.0 0.00 0.00 0.00 39 1013.6
20260504233504 72 313 2.0 10.0 0.00 0.00 0.00 40 1013.6
20260504233004 72 307 1.0 8.0 0.00 0.00 0.00 40 1013.7
20260504232004 72 312 1.0 3.0 0.00 0.00 0.00 41 1013.7
20260504231504 72 313 1.0 7.0 0.00 0.00 0.00 40 1013.7
20260504231004 71 314 1.0 7.0 0.00 0.00 0.00 39 1013.8
20260504230504 72 318 2.0 10.0 0.00 0.00 0.00 38 1013.8
20260504230004 72 318 1.0 9.0 0.00 0.00 0.00 38 1013.9
20260504225504 73 318 0.0 3.0 0.00 0.00 0.00 38 1013.9
20260504224504 73 314 0.0 5.0 0.00 0.00 0.00 38 1013.9
20260504224004 73 340 0.0 3.0 0.00 0.00 0.00 39 1013.9
20260504223504 73 338 0.0 3.0 0.00 0.00 0.00 38 1014.0
20260504222504 73 322 0.0 2.0 0.00 0.00 0.00 38 1014.0
20260504222004 73 336 0.0 3.0 0.00 0.00 0.00 40 1014.1
20260504221504 72 350 0.0 5.0 0.00 0.00 0.00 40 1014.1
20260504221004 72 313 0.0 7.0 0.00 0.00 0.00 40 1014.1
20260504220503 72 324 1.0 3.0 0.00 0.00 0.00 39 1014.1
20260504220004 71 322 1.0 8.0 0.00 0.00 0.00 40 1014.1
20260504215504 71 318 1.0 10.0 0.00 0.00 0.00 37 1014.2
20260504215004 71 311 1.0 10.0 0.00 0.00 0.00 36 1014.3
20260504214004 73 313 1.0 8.0 0.00 0.00 0.00 35 1014.4